[[{"header":{"parameterUnit":"m.s-1","parameterCategory":2,"la1":30.2992,"la2":30.254,"lo1":-89.0895,"lo2":-89.0443,"dy":0.0025,"dx":0.0025,"nx":19,"ny":19,"refTime":"2026-05-06T03:00:00:Z","depth":"0","parameterNumber":2,"parameterNumberName":"U-component_of_CURRENTS"},"data":[0,0,0,-0.2247,-0.2247,-0.2266,-0.2266,-0.2279,-0.2279,0,0,0,0,0,0,0,0,0,0,0,-0.2231,-0.2231,-0.2247,-0.2247,-0.2266,-0.2266,-0.2279,-0.2279,0,0,0,0,0,0,0,0,0,0,0,-0.2231,-0.2231,-0.2231,-0.2247,-0.2266,-0.2266,-0.2279,-0.2267,0,0,0,0,0,0,0,0,0,0,-0.225,-0.2234,-0.2231,-0.2231,-0.2248,-0.2266,-0.2266,-0.2266,-0.2267,-0.2268,0,-0.2266,0,-0.2278,-0.228,-0.228,0,0,0,-0.2245,-0.2233,-0.2244,-0.2231,-0.2248,-0.2266,-0.2257,-0.2267,-0.2268,-0.227,-0.2266,-0.2267,-0.2278,-0.228,-0.228,-0.2323,-0.2323,0,0,-0.2244,-0.223,-0.2243,-0.2244,-0.2246,-0.2256,-0.2257,-0.2268,-0.2263,-0.2266,-0.2268,-0.2278,-0.228,-0.228,-0.2323,-0.2323,0,0,0,-0.2242,-0.223,-0.224,-0.2243,-0.2251,-0.2257,-0.2258,-0.2262,-0.2267,-0.2268,-0.2279,-0.228,-0.228,-0.2322,-0.2323,-0.2364,0,0,0,-0.2242,-0.223,-0.2239,-0.2231,-0.225,-0.2258,-0.2252,-0.2266,-0.2268,-0.2279,-0.228,-0.228,-0.2322,-0.2323,-0.2362,-0.2379,0,0,0,-0.2231,-0.2229,-0.223,-0.223,-0.2241,-0.2258,-0.2263,-0.2266,-0.2275,-0.228,-0.228,-0.2322,-0.2323,-0.2361,-0.2376,-0.2337,0,0,0,-0.2219,-0.2226,-0.2229,-0.225,-0.2241,-0.2286,-0.2263,-0.2287,-0.2295,-0.228,-0.2322,-0.2323,-0.236,-0.2374,-0.2336,-0.212,-0.2106,0,0,-0.2226,-0.2226,-0.2244,-0.2248,-0.2295,-0.2284,-0.2331,-0.2323,-0.2308,-0.2316,-0.2317,-0.2363,-0.2376,-0.2336,-0.2172,-0.2156,0,0,0,-0.2247,-0.2253,-0.2271,-0.2297,-0.2329,-0.2355,-0.2354,-0.2354,-0.236,-0.2317,-0.237,-0.2376,-0.2349,-0.2218,-0.2207,-0.2126,-0.2327,-0.2327,-0.2327,-0.221,-0.2254,-0.2293,-0.2342,-0.2371,-0.2404,-0.2421,-0.2419,-0.24,-0.2409,-0.2415,-0.2423,-0.2285,-0.2273,-0.2196,-0.2421,-0.2422,-0.2422,-0.2422,-0.2236,-0.2303,-0.2318,-0.238,-0.242,-0.2457,-0.2481,-0.2473,-0.247,-0.2464,-0.2434,-0.2276,-0.2262,-0.2184,-0.2425,-0.2424,-0.2424,-0.2424,-0.2423,-0.2245,-0.2307,-0.2318,-0.2415,-0.2455,-0.2493,-0.2473,-0.2517,-0.2496,-0.2495,-0.229,-0.2286,-0.2207,-0.2457,-0.2456,-0.2456,-0.2456,-0.2456,-0.2456,-0.2318,-0.2339,-0.2342,-0.2472,-0.2452,-0.2488,-0.2486,-0.2439,-0.2358,-0.2311,-0.2308,-0.2187,-0.2432,-0.2419,-0.2455,-0.2455,-0.2455,-0.2455,-0.2456,-0.2295,-0.2346,-0.2317,-0.2295,-0.2302,-0.2184,-0.2329,-0.2166,-0.2154,-0.2059,-0.1967,-0.2188,-0.214,-0.2146,-0.2125,-0.2083,-0.2083,-0.2083,-0.2083,-0.2216,-0.2294,-0.209,-0.1971,-0.1968,-0.1952,-0.1721,-0.1753,-0.1749,-0.1688,-0.1776,-0.1723,-0.1742,-0.167,-0.1687,-0.1658,-0.1499,-0.1498,-0.1498,-0.2016,-0.2041,-0.1744,-0.1744,-0.1688,-0.1592,-0.1293,-0.1262,-0.1344,-0.1478,-0.1716,-0.1741,-0.1675,-0.171,-0.1609,-0.1639,-0.1595,0,0]},{"header":{"parameterUnit":"m.s-1","parameterCategory":2,"la1":30.2992,"la2":30.254,"lo1":-89.0895,"lo2":-89.0443,"dy":0.0025,"dx":0.0025,"nx":19,"ny":19,"refTime":"2026-05-06T03:00:00:Z","depth":"0","parameterNumber":3,"parameterNumberName":"V-component_of_CURRENTS"},"data":[0,0,0,-0.0365,-0.0363,-0.0263,-0.0263,-0.0102,-0.01,0,0,0,0,0,0,0,0,0,0,0,-0.0402,-0.0401,-0.0365,-0.0363,-0.0263,-0.0263,-0.0102,-0.01,0,0,0,0,0,0,0,0,0,0,0,-0.0402,-0.0401,-0.0401,-0.0363,-0.0263,-0.0263,-0.0102,-0.0183,0,0,0,0,0,0,0,0,0,0,-0.0283,-0.0332,-0.0401,-0.0401,-0.0362,-0.0263,-0.0263,-0.0187,-0.0178,-0.0141,0,-0.0135,0,-0.0117,-0.009,-0.0089,0,0,0,-0.0351,-0.034,-0.0308,-0.0401,-0.0361,-0.0264,-0.0305,-0.0182,-0.0172,-0.0129,-0.0132,-0.0126,-0.0114,-0.0089,-0.0088,0.003,0.003,0,0,-0.0356,-0.0383,-0.0316,-0.0302,-0.0346,-0.0308,-0.0302,-0.0176,-0.0172,-0.0132,-0.0123,-0.0111,-0.0088,-0.0087,0.003,0.003,0,0,0,-0.038,-0.0387,-0.0359,-0.0309,-0.0295,-0.0305,-0.0298,-0.0177,-0.0167,-0.0121,-0.0109,-0.0087,-0.0085,0.0029,0.003,-0.0038,0,0,0,-0.0383,-0.0401,-0.0361,-0.0376,-0.0298,-0.0241,-0.0303,-0.0176,-0.0161,-0.011,-0.0087,-0.0084,0.0029,0.003,-0.0037,-0.0046,0,0,0,-0.0404,-0.0404,-0.0395,-0.0378,-0.0339,-0.0243,-0.0225,-0.0172,-0.0154,-0.0089,-0.0083,0.0029,0.0029,-0.0036,-0.0043,0.0056,0,0,0,-0.0431,-0.044,-0.0396,-0.0402,-0.034,-0.0296,-0.0225,-0.0185,-0.0138,-0.0086,0.0029,0.003,-0.0035,-0.0042,0.0055,0.0125,0.0134,0,0,-0.0461,-0.0444,-0.0448,-0.0407,-0.0394,-0.0308,-0.0271,-0.0183,-0.0115,-0.0008,-0.0005,-0.0037,-0.0043,0.0056,0.0142,0.015,0,0,0,-0.047,-0.0474,-0.0463,-0.0443,-0.0391,-0.0329,-0.024,-0.0182,-0.0087,-0.0086,-0.0012,-0.0012,0.0052,0.0093,0.01,0.0243,0.0031,0.0031,0.0031,-0.0535,-0.051,-0.0517,-0.0475,-0.0435,-0.0336,-0.0269,-0.0165,-0.0113,-0.0078,-0.0051,0.0002,0.0041,0.0048,0.0192,-0.0041,-0.0041,-0.0041,-0.0041,-0.0581,-0.0548,-0.0548,-0.0544,-0.0471,-0.0419,-0.0272,-0.0216,-0.0068,-0.0069,-0.0002,0.0039,0.0052,0.0203,-0.0045,-0.0044,-0.0044,-0.0044,-0.0043,-0.0614,-0.0569,-0.0609,-0.0552,-0.052,-0.0426,-0.0301,-0.0223,-0.0108,-0.0061,0.0082,0.0084,0.0212,-0.0003,-0.0002,-0.0002,-0.0002,-0.0001,-0.0001,-0.0548,-0.0577,-0.0504,-0.0512,-0.0441,-0.0378,-0.028,-0.0179,-0.0027,0.005,0.0053,0.0257,0.0016,0.0009,0.0004,0.0003,0.0003,0.0002,0.0002,-0.0319,-0.0381,-0.0277,-0.0216,-0.0126,-0.0019,-0.0033,0.0078,0.0147,0.0232,0.0388,0.0149,0.0207,0.0203,0.0202,0.0249,0.0249,0.0249,0.0249,-0.0099,-0.0147,0.0035,0.0137,0.0231,0.0193,0.042,0.0432,0.0498,0.0558,0.0568,0.0554,0.0537,0.0614,0.0601,0.0608,0.0757,0.0758,0.0759,0.0233,0.0178,0.0367,0.0296,0.0399,0.0453,0.0668,0.0829,0.0795,0.0792,0.0756,0.0734,0.072,0.0683,0.0804,0.0773,0.0785,0,0]}],[{"header":{"parameterUnit":"m.s-1","parameterCategory":2,"la1":30.2992,"la2":30.254,"lo1":-89.0895,"lo2":-89.0443,"dy":0.0025,"dx":0.0025,"nx":19,"ny":19,"refTime":"2026-05-06T03:00:00:Z","depth":"2","parameterNumber":2,"parameterNumberName":"U-component_of_CURRENTS"},"data":[0,0,0,-0.2067,-0.2068,-0.2096,-0.2096,-0.2115,-0.2115,0,0,0,0,0,0,0,0,0,0,0,-0.205,-0.205,-0.2067,-0.2068,-0.2096,-0.2096,-0.2115,-0.2115,0,0,0,0,0,0,0,0,0,0,0,-0.205,-0.205,-0.205,-0.2068,-0.2096,-0.2096,-0.2115,-0.2097,0,0,0,0,0,0,0,0,0,0,-0.2072,-0.2058,-0.205,-0.205,-0.2068,-0.2096,-0.2096,-0.2097,-0.2099,-0.2098,0,-0.2098,0,-0.2111,-0.2116,-0.2116,0,0,0,-0.2067,-0.2057,-0.2067,-0.205,-0.2068,-0.2096,-0.2083,-0.2098,-0.21,-0.21,-0.2098,-0.2099,-0.2111,-0.2116,-0.2116,-0.2158,-0.2158,0,0,-0.2065,-0.2054,-0.2065,-0.2068,-0.207,-0.2082,-0.2084,-0.2099,-0.2097,-0.2098,-0.21,-0.2111,-0.2116,-0.2116,-0.2157,-0.2158,0,0,0,-0.2061,-0.2052,-0.2062,-0.2067,-0.2075,-0.2083,-0.2085,-0.2096,-0.21,-0.21,-0.2111,-0.2116,-0.2116,-0.2157,-0.2157,-0.2189,0,0,0,-0.206,-0.2051,-0.2061,-0.2055,-0.2075,-0.2089,-0.2081,-0.2099,-0.2101,-0.2111,-0.2116,-0.2116,-0.2156,-0.2157,-0.2187,-0.2195,0,0,0,-0.205,-0.205,-0.2052,-0.2054,-0.2068,-0.2089,-0.2093,-0.2099,-0.2108,-0.2116,-0.2117,-0.2156,-0.2157,-0.2186,-0.2192,-0.2162,0,0,0,-0.2039,-0.2045,-0.2051,-0.207,-0.2068,-0.211,-0.2093,-0.2119,-0.2129,-0.2116,-0.2156,-0.2157,-0.2185,-0.2191,-0.2161,-0.1962,-0.1949,0,0,-0.2044,-0.2045,-0.2061,-0.2068,-0.2109,-0.2106,-0.2149,-0.2149,-0.214,-0.2149,-0.215,-0.2188,-0.2192,-0.2161,-0.201,-0.1995,0,0,0,-0.2062,-0.2068,-0.2084,-0.2108,-0.2138,-0.2164,-0.2172,-0.2175,-0.2185,-0.215,-0.2195,-0.2197,-0.2176,-0.2056,-0.2045,-0.2161,-0.2161,-0.2161,-0.2161,-0.2033,-0.2069,-0.21,-0.2142,-0.217,-0.2205,-0.2222,-0.2226,-0.2217,-0.2227,-0.2229,-0.2236,-0.211,-0.2099,-0.2239,-0.2239,-0.2239,-0.2239,-0.224,-0.2044,-0.2055,-0.2112,-0.2157,-0.2197,-0.2233,-0.2266,-0.2266,-0.2268,-0.2268,-0.2246,-0.2104,-0.2088,-0.2242,-0.2242,-0.2241,-0.2241,-0.2241,-0.2241,-0.2031,-0.2032,-0.2085,-0.214,-0.2195,-0.2242,-0.2254,-0.2283,-0.2285,-0.2284,-0.2109,-0.2106,-0.2229,-0.2259,-0.2259,-0.2259,-0.2259,-0.2259,-0.2259,-0.1965,-0.2016,-0.2011,-0.2106,-0.2127,-0.2183,-0.2243,-0.2225,-0.2153,-0.2118,-0.2116,-0.2242,-0.2241,-0.2229,-0.2258,-0.2258,-0.2258,-0.2258,-0.2258,-0.1835,-0.1876,-0.1886,-0.1904,-0.1979,-0.197,-0.2101,-0.2019,-0.2004,-0.1914,-0.2003,-0.201,-0.1968,-0.1974,-0.1955,-0.1911,-0.1911,-0.1911,-0.1911,-0.1697,-0.1734,-0.1688,-0.1697,-0.1755,-0.1841,-0.1741,-0.1714,-0.1707,-0.1656,-0.1668,-0.1627,-0.1645,-0.1585,-0.1601,-0.1574,-0.1431,-0.1431,-0.143,-0.151,-0.1574,-0.1473,-0.1566,-0.1627,-0.1664,-0.1517,-0.1362,-0.1263,-0.1419,-0.1663,-0.1864,-0.1833,-0.1851,-0.1783,-0.1798,-0.1765,0,0]},{"header":{"parameterUnit":"m.s-1","parameterCategory":2,"la1":30.2992,"la2":30.254,"lo1":-89.0895,"lo2":-89.0443,"dy":0.0025,"dx":0.0025,"nx":19,"ny":19,"refTime":"2026-05-06T03:00:00:Z","depth":"2","parameterNumber":3,"parameterNumberName":"V-component_of_CURRENTS"},"data":[0,0,0,-0.0417,-0.0415,-0.0322,-0.0321,-0.0173,-0.0172,0,0,0,0,0,0,0,0,0,0,0,-0.0451,-0.0451,-0.0417,-0.0415,-0.0322,-0.0321,-0.0173,-0.0171,0,0,0,0,0,0,0,0,0,0,0,-0.0451,-0.0451,-0.0451,-0.0415,-0.0322,-0.0321,-0.0173,-0.0248,0,0,0,0,0,0,0,0,0,0,-0.0341,-0.0388,-0.0451,-0.0451,-0.0414,-0.0322,-0.0321,-0.0252,-0.0243,-0.021,0,-0.0205,0,-0.0187,-0.0162,-0.0161,0,0,0,-0.0403,-0.0395,-0.0365,-0.0451,-0.0414,-0.0322,-0.0361,-0.0247,-0.0238,-0.0199,-0.0202,-0.0197,-0.0185,-0.0161,-0.016,-0.0065,-0.0065,0,0,-0.0408,-0.0434,-0.0372,-0.036,-0.0399,-0.0364,-0.0358,-0.0242,-0.0238,-0.0202,-0.0193,-0.0182,-0.016,-0.0159,-0.0065,-0.0065,0,0,0,-0.0431,-0.0438,-0.0411,-0.0366,-0.0352,-0.0361,-0.0354,-0.0243,-0.0233,-0.0192,-0.0181,-0.0159,-0.0158,-0.0065,-0.0065,-0.0143,0,0,0,-0.0434,-0.0451,-0.0414,-0.0427,-0.0355,-0.0302,-0.0359,-0.0241,-0.0228,-0.0181,-0.0159,-0.0156,-0.0065,-0.0065,-0.0141,-0.0168,0,0,0,-0.0454,-0.0453,-0.0445,-0.0429,-0.0393,-0.0304,-0.0287,-0.0238,-0.0221,-0.0161,-0.0156,-0.0065,-0.0065,-0.0139,-0.0165,-0.0108,0,0,0,-0.0478,-0.0487,-0.0446,-0.0452,-0.0394,-0.0357,-0.0288,-0.025,-0.0207,-0.0159,-0.0065,-0.0065,-0.0138,-0.0163,-0.0107,-0.0089,-0.0091,0,0,-0.0506,-0.0491,-0.0496,-0.0457,-0.0451,-0.0369,-0.0344,-0.0259,-0.0192,-0.0098,-0.0096,-0.0142,-0.0165,-0.0108,-0.0091,-0.0093,0,0,0,-0.0516,-0.0523,-0.0514,-0.0499,-0.0452,-0.0406,-0.0319,-0.0267,-0.0186,-0.0167,-0.012,-0.0132,-0.0093,-0.008,-0.0082,-0.0065,-0.0065,-0.0065,-0.0065,-0.0582,-0.0561,-0.0576,-0.0544,-0.0512,-0.0425,-0.0375,-0.0283,-0.022,-0.0194,-0.0181,-0.0172,-0.0161,-0.0161,-0.0165,-0.0166,-0.0166,-0.0166,-0.0166,-0.0643,-0.0684,-0.0626,-0.0636,-0.0577,-0.0539,-0.0412,-0.0357,-0.0244,-0.0219,-0.0177,-0.0147,-0.0168,-0.0172,-0.0171,-0.017,-0.017,-0.0169,-0.0169,-0.0709,-0.0746,-0.0717,-0.0735,-0.0695,-0.0609,-0.0538,-0.0437,-0.0308,-0.0279,-0.0182,-0.018,-0.0194,-0.0233,-0.0233,-0.0233,-0.0233,-0.0233,-0.0233,-0.0841,-0.0819,-0.0895,-0.0853,-0.0872,-0.0807,-0.0604,-0.0505,-0.0337,-0.0246,-0.0244,-0.0192,-0.019,-0.0194,-0.0231,-0.0231,-0.0231,-0.0232,-0.0232,-0.1049,-0.1036,-0.1111,-0.1153,-0.115,-0.1125,-0.0863,-0.0539,-0.0359,-0.0268,-0.0196,-0.0198,-0.015,-0.0148,-0.015,-0.0172,-0.0172,-0.0172,-0.0172,-0.1236,-0.1225,-0.1344,-0.1411,-0.1441,-0.1292,-0.1118,-0.0715,-0.0351,-0.0217,-0.0215,-0.0233,-0.0234,-0.0191,-0.0188,-0.019,-0.0223,-0.0223,-0.0224,-0.1444,-0.1408,-0.1516,-0.1506,-0.1573,-0.1474,-0.1318,-0.0872,-0.0363,-0.0229,-0.026,-0.0168,-0.019,-0.0193,-0.0122,-0.012,-0.012,0,0]}],[{"header":{"parameterUnit":"m.s-1","parameterCategory":2,"la1":30.2992,"la2":30.254,"lo1":-89.0895,"lo2":-89.0443,"dy":0.0025,"dx":0.0025,"nx":19,"ny":19,"refTime":"2026-05-06T03:00:00:Z","depth":"4","parameterNumber":2,"parameterNumberName":"U-component_of_CURRENTS"},"data":[0,0,0,-0.1547,-0.155,-0.1666,-0.1666,-0.1748,-0.1749,0,0,0,0,0,0,0,0,0,0,0,-0.151,-0.1511,-0.1547,-0.155,-0.1666,-0.1666,-0.1748,-0.1749,0,0,0,0,0,0,0,0,0,0,0,-0.151,-0.1511,-0.1512,-0.155,-0.1665,-0.1666,-0.1748,-0.1678,0,0,0,0,0,0,0,0,0,0,-0.1574,-0.1555,-0.151,-0.1512,-0.1551,-0.1665,-0.1666,-0.1676,-0.1682,-0.1676,0,-0.1698,0,-0.1721,-0.1752,-0.1753,0,0,0,-0.1554,-0.1549,-0.1572,-0.1512,-0.1552,-0.1665,-0.1615,-0.168,-0.1688,-0.1684,-0.1699,-0.1703,-0.1723,-0.1753,-0.1753,-0.1821,-0.1822,0,0,-0.1548,-0.1538,-0.1567,-0.1577,-0.1587,-0.1611,-0.1618,-0.1685,-0.1698,-0.17,-0.1705,-0.1724,-0.1753,-0.1753,-0.1821,-0.1821,0,0,0,-0.1527,-0.1533,-0.1556,-0.1573,-0.1598,-0.1614,-0.1623,-0.1696,-0.1702,-0.1706,-0.1725,-0.1753,-0.1754,-0.1821,-0.1821,-0.1839,0,0,0,-0.1523,-0.1521,-0.1553,-0.155,-0.1597,-0.1659,-0.1631,-0.1697,-0.1706,-0.1724,-0.1753,-0.1755,-0.182,-0.1821,-0.1838,-0.1827,0,0,0,-0.1504,-0.1519,-0.1532,-0.1549,-0.1596,-0.1659,-0.167,-0.17,-0.1716,-0.1753,-0.1755,-0.182,-0.1821,-0.1837,-0.1826,-0.1778,0,0,0,-0.1489,-0.1509,-0.1532,-0.1567,-0.1595,-0.1662,-0.167,-0.1728,-0.1763,-0.1754,-0.182,-0.1821,-0.1837,-0.1825,-0.1778,-0.1567,0,0,0,-0.1499,-0.151,-0.153,-0.1553,-0.1609,-0.1646,-0.1711,-0.1758,-0.177,-0.1793,-0.1796,-0.1839,-0.1826,-0.1778,-0.1618,0,0,0,0,-0.1524,-0.1538,-0.1561,-0.1604,-0.1654,-0.1706,-0.176,-0.178,-0.1824,-0.1793,-0.185,-0.1841,-0.181,-0.1689,-0.1825,-0.1825,-0.1825,-0.1825,-0.1825,-0.1514,-0.1546,-0.1583,-0.1632,-0.168,-0.1754,-0.179,-0.1825,-0.1844,-0.1867,-0.1866,-0.1854,-0.1731,-0.1886,-0.1887,-0.1887,-0.1887,-0.1887,-0.1887,-0.1511,-0.151,-0.1588,-0.1634,-0.1699,-0.1761,-0.1826,-0.185,-0.1867,-0.1893,-0.1862,-0.1731,-0.1889,-0.1889,-0.1888,-0.1888,-0.1888,-0.1888,-0.1888,-0.1478,-0.1469,-0.1535,-0.159,-0.1672,-0.1754,-0.1766,-0.1829,-0.1866,-0.186,-0.1692,-0.1844,-0.1827,-0.1838,-0.1838,-0.1837,-0.1837,-0.1837,-0.1837,-0.1372,-0.1432,-0.1438,-0.1529,-0.1562,-0.1628,-0.1722,-0.1713,-0.1762,-0.1671,-0.1851,-0.1836,-0.1838,-0.1823,-0.1833,-0.1834,-0.1834,-0.1835,-0.1835,-0.1232,-0.1279,-0.1278,-0.1305,-0.1375,-0.1419,-0.155,-0.152,-0.1478,-0.1416,-0.155,-0.1565,-0.1522,-0.153,-0.1503,-0.1419,-0.1416,-0.1413,0,-0.1104,-0.1136,-0.1109,-0.1117,-0.1123,-0.1277,-0.12,-0.1247,-0.1293,-0.1261,-0.1465,-0.1619,-0.1628,-0.1584,-0.1587,-0.1556,0,0,0,-0.0966,-0.1004,-0.0944,-0.1011,-0.1011,-0.1069,-0.1182,-0.1136,-0.1314,-0.1214,-0.1344,-0.1362,-0.164,-0.1823,-0.1791,-0.1793,-0.1767,0,0]},{"header":{"parameterUnit":"m.s-1","parameterCategory":2,"la1":30.2992,"la2":30.254,"lo1":-89.0895,"lo2":-89.0443,"dy":0.0025,"dx":0.0025,"nx":19,"ny":19,"refTime":"2026-05-06T03:00:00:Z","depth":"4","parameterNumber":3,"parameterNumberName":"V-component_of_CURRENTS"},"data":[0,0,0,-0.0314,-0.0313,-0.0258,-0.0258,-0.0147,-0.0146,0,0,0,0,0,0,0,0,0,0,0,-0.0336,-0.0335,-0.0314,-0.0313,-0.0258,-0.0258,-0.0148,-0.0146,0,0,0,0,0,0,0,0,0,0,0,-0.0336,-0.0335,-0.0335,-0.0313,-0.0258,-0.0258,-0.0148,-0.0197,0,0,0,0,0,0,0,0,0,0,-0.0254,-0.0289,-0.0335,-0.0335,-0.0312,-0.0259,-0.0258,-0.0199,-0.0194,-0.0164,0,-0.0165,0,-0.0155,-0.0139,-0.0139,0,0,0,-0.0302,-0.0294,-0.0275,-0.0335,-0.0312,-0.0259,-0.028,-0.0196,-0.019,-0.0156,-0.0164,-0.0159,-0.0153,-0.0138,-0.0138,-0.0079,-0.0079,0,0,-0.0306,-0.0325,-0.028,-0.0271,-0.0309,-0.0282,-0.0278,-0.0193,-0.0192,-0.0163,-0.0157,-0.0151,-0.0138,-0.0137,-0.0079,-0.0079,0,0,0,-0.0321,-0.0327,-0.0311,-0.0276,-0.027,-0.0281,-0.0277,-0.0196,-0.019,-0.0156,-0.015,-0.0137,-0.0136,-0.0078,-0.0079,-0.0164,0,0,0,-0.0322,-0.0337,-0.0312,-0.0323,-0.0272,-0.0239,-0.0282,-0.0196,-0.0186,-0.0151,-0.0137,-0.0135,-0.0078,-0.0079,-0.0162,-0.0209,0,0,0,-0.0336,-0.0338,-0.0335,-0.0324,-0.0304,-0.0241,-0.023,-0.0194,-0.0183,-0.0139,-0.0134,-0.0078,-0.0078,-0.0159,-0.0204,-0.0212,0,0,0,-0.0352,-0.0362,-0.0335,-0.0346,-0.0305,-0.0288,-0.023,-0.0207,-0.0176,-0.0136,-0.0078,-0.0079,-0.0158,-0.0201,-0.0209,-0.0215,0,0,0,-0.0374,-0.0365,-0.0371,-0.0346,-0.0357,-0.0294,-0.0294,-0.0228,-0.0169,-0.0101,-0.01,-0.0162,-0.0203,-0.0211,-0.0239,0,0,0,0,-0.0384,-0.0397,-0.0393,-0.0394,-0.0364,-0.0351,-0.0283,-0.0248,-0.0193,-0.0154,-0.0147,-0.017,-0.0172,-0.0167,-0.0081,-0.0081,-0.0081,-0.0081,-0.0081,-0.0443,-0.0433,-0.046,-0.0448,-0.0434,-0.0384,-0.0363,-0.0299,-0.0233,-0.0223,-0.0228,-0.0279,-0.0277,-0.0208,-0.0208,-0.0208,-0.0209,-0.0209,-0.0209,-0.0505,-0.0546,-0.0521,-0.0547,-0.0522,-0.0512,-0.0435,-0.0391,-0.034,-0.0286,-0.0283,-0.0244,-0.0217,-0.0216,-0.0214,-0.0214,-0.0213,-0.0212,-0.0212,-0.0569,-0.06,-0.0599,-0.065,-0.0656,-0.0607,-0.0604,-0.0524,-0.0425,-0.0427,-0.0379,-0.0326,-0.0331,-0.0411,-0.0411,-0.0411,-0.0411,-0.0412,-0.0412,-0.0667,-0.067,-0.0748,-0.0771,-0.0808,-0.0798,-0.0707,-0.0655,-0.0547,-0.0479,-0.0443,-0.0346,-0.0339,-0.034,-0.0416,-0.0415,-0.0415,-0.0414,-0.0414,-0.0805,-0.0815,-0.0904,-0.0961,-0.1017,-0.099,-0.0897,-0.0715,-0.0667,-0.0585,-0.0488,-0.0483,-0.0447,-0.0437,-0.044,-0.0548,-0.0549,-0.0549,0,-0.092,-0.0929,-0.1037,-0.1114,-0.1169,-0.1092,-0.1001,-0.0869,-0.07,-0.0697,-0.0701,-0.0602,-0.0593,-0.0562,-0.0554,-0.0564,0,0,0,-0.1038,-0.1029,-0.1105,-0.1142,-0.1212,-0.1059,-0.0952,-0.0881,-0.0724,-0.0625,-0.0558,-0.0556,-0.0517,-0.0428,-0.036,-0.0352,-0.035,0,0]}]]